Volver al catálogo

RUBIN 8/PSLV

ActivoCienciaSSO
NORAD 32792·PAYLOAD·🇩🇪 Germany

Lanzado Apr 28, 2008 desde Satish Dhawan Space Centre

Loading…

Próximos Pases (próximas 24 horas)

TLE

ActualizadoSource: Space-Track

Época: Sep 14, 2026, 11:16 UTC

1 32792U 08021K   26257.46989705  .00000735  00000-0  89361-4 0  9990
2 32792  98.1497 261.4431 0025205  45.6292 314.6981 14.86459492992369

Sigue RUBIN 8/PSLV en tiempo real con AllMySat

Download on the App Store